Wind_Speed
25 24 24 24 25 27 28 29 28 28 28 27 27 26 25 25 25 26 26 25 25 27 29 29 31 32 30 28 28 28 28 29 31 34 36 36 35 35 35 35 36 37
26 24 23 24 26 27 27 26 25 26 26 27 28 28 27 25 24 26 28 27 27 29 31 32 33 33 30 27 26 27 28 29 32 34 36 35 35 36 37 37 38 38
26 24 23 26 28 26 24 25 26 25 24 25 26 27 27 25 24 24 27 28 29 30 31 32 33 32 29 26 26 27 29 30 33 35 35 35 36 37 39 40 39 37
27 26 26 27 27 24 24 26 27 27 26 25 25 25 26 25 23 23 26 27 28 29 31 31 30 29 27 27 29 31 31 32 34 36 36 36 37 39 40 40 38 36
28 28 29 28 27 27 28 28 27 27 27 26 25 24 25 25 24 24 27 29 29 30 32 30 28 28 29 31 34 35 34 35 37 38 38 39 40 41 40 38 36 34
30 31 32 31 30 32 31 28 27 28 27 24 23 22 23 24 25 26 27 29 30 31 32 31 31 32 33 35 38 39 38 38 40 41 40 40 40 39 37 35 33 33
32 34 35 34 32 33 32 28 28 27 23 21 21 21 21 23 25 27 27 28 30 31 31 31 33 35 37 39 41 41 41 41 42 42 41 40 40 38 36 34 33 34
32 34 35 36 34 33 31 28 27 26 23 22 23 22 21 22 24 26 27 28 29 30 31 33 35 37 39 41 42 42 42 42 42 41 40 41 41 39 35 33 34 38
28 30 32 35 37 37 34 31 29 27 24 24 25 23 21 21 23 25 28 29 30 32 33 35 37 38 40 41 42 42 43 42 41 40 42 43 41 38 35 35 38 42
24 26 27 29 32 35 36 36 33 29 26 26 25 23 22 24 25 28 30 31 32 33 34 36 37 38 39 40 41 42 41 39 39 41 44 43 40 37 36 38 41 45
21 23 24 24 25 28 30 32 30 27 26 26 25 24 25 27 29 31 32 32 32 33 34 36 38 39 39 39 39 38 36 37 41 44 44 41 37 35 37 41 45 48
18 19 20 21 21 22 22 23 23 24 25 26 26 26 29 30 32 32 31 32 32 33 34 36 36 36 35 35 35 35 37 41 43 44 42 38 36 36 38 43 48 51
16 17 18 19 19 18 18 19 21 24 26 26 27 28 30 31 31 31 31 31 32 32 34 35 34 34 34 35 37 39 41 43 44 42 40 37 37 37 40 46 51 53
16 17 17 17 17 16 17 19 21 23 25 25 27 28 30 31 31 31 31 31 32 33 34 35 36 37 38 39 41 42 43 44 43 41 39 37 37 39 43 49 53 56
16 16 16 17 17 17 19 20 21 22 23 25 27 28 29 30 31 31 31 32 33 34 36 37 39 40 41 41 42 43 44 43 41 39 37 36 37 40 45 51 54 57
15 15 15 16 17 18 19 21 21 22 23 24 26 26 27 28 29 30 32 33 34 36 38 40 41 41 42 42 43 43 42 40 38 36 35 35 38 43 48 52 55 57
16 17 17 17 17 18 19 21 22 23 24 25 26 27 28 30 31 33 34 36 38 39 41 41 42 42 42 41 40 39 38 36 34 33 34 37 41 46 50 53 56 58
18 18 19 20 20 21 22 23 25 26 27 28 29 30 32 34 35 37 38 39 41 41 42 42 41 40 39 38 37 35 33 33 33 34 37 42 45 48 51 53 55 58
21 21 21 22 23 24 26 27 28 29 30 31 32 34 35 36 38 39 39 40 40 40 40 39 39 37 36 34 32 31 30 31 34 38 41 45 47 49 51 53 55 57
25 25 25 25 26 27 28 29 31 32 32 33 34 35 36 36 37 37 38 37 37 37 36 35 34 33 32 30 29 29 30 33 38 41 44 46 48 50 52 53 54 54
26 26 26 27 27 27 28 29 31 32 33 33 33 33 34 34 34 34 33 33 32 31 31 30 29 28 28 28 29 31 34 37 41 43 45 47 48 50 51 51 50 49
27 27 27 27 27 27 27 28 28 29 30 30 30 30 30 30 29 28 27 26 26 25 26 26 26 27 28 30 32 34 37 40 42 44 46 47 48 49 48 47 46 45
27 28 28 28 28 28 28 27 27 27 27 27 27 26 26 25 24 23 23 22 23 24 25 26 28 29 31 33 35 37 39 41 43 44 45 46 46 45 43 42 42 42
27 27 27 27 26 26 25 25 24 24 24 23 23 22 22 22 21 22 22 23 25 27 28 29 31 32 34 35 37 38 40 42 43 43 43 42 41 40 39 39 40 40
26 25 25 24 24 24 23 22 22 21 21 20 20 20 20 21 22 23 24 26 27 29 30 31 32 33 35 36 38 40 41 42 41 40 39 37 36 36 37 39 39 39
25 24 23 23 22 23 22 22 21 21 20 19 19 20 21 21 22 23 25 26 27 29 30 31 33 34 36 37 38 39 39 39 37 36 34 32 33 35 37 38 38 38
Wind_Direction
277 290 303 305 302 299 297 294 291 290 291 290 289 288 290 291 285 277 276 282 289 293 297 300 304 307 309 309 308 306 305 305 306 309 312 313 313 313 314 315 314 313
271 281 295 300 301 300 298 297 297 297 297 296 293 289 288 289 283 275 274 279 286 292 296 299 301 304 306 306 306 306 305 305 307 310 313 313 313 313 314 313 312 311
271 276 285 292 297 298 291 289 295 298 300 301 300 294 289 287 284 278 274 279 286 292 296 298 300 301 301 300 303 304 304 306 309 312 314 313 313 314 314 312 310 310
269 272 277 284 291 291 284 282 288 292 295 298 300 297 291 289 286 280 278 283 289 295 300 302 302 301 298 298 305 307 306 309 313 314 313 314 315 316 314 311 310 313
265 268 270 275 279 281 283 286 288 292 295 295 294 294 292 291 287 282 282 287 292 297 302 303 304 303 300 301 307 309 306 308 313 314 313 314 316 317 314 311 312 316
261 264 266 268 271 274 281 285 289 294 295 293 293 294 293 292 289 286 286 288 291 296 300 300 301 302 301 302 305 306 304 306 310 313 314 315 317 317 315 313 314 315
261 262 264 265 265 268 274 279 285 291 291 291 294 295 296 297 295 293 290 290 292 296 298 298 300 302 302 302 302 303 303 305 309 312 314 317 318 318 315 313 312 313
261 261 261 262 263 265 269 274 281 287 286 286 288 290 294 300 301 299 296 295 297 300 302 304 304 303 302 301 301 302 303 305 308 311 315 317 318 316 313 311 311 314
264 262 261 262 264 266 267 269 274 280 282 283 283 284 289 294 296 297 298 300 303 306 308 307 305 304 302 301 301 301 302 304 308 312 315 317 317 313 311 311 313 317
270 269 269 269 269 267 265 265 268 272 277 281 282 283 287 292 294 296 299 300 302 305 306 306 303 300 298 298 298 300 302 306 310 314 316 316 313 310 309 312 316 320
276 273 273 275 276 271 267 266 265 265 271 277 282 286 290 294 296 297 297 297 298 300 303 302 298 295 295 296 299 302 307 311 314 316 316 313 309 306 309 314 319 322
278 276 274 276 279 275 269 264 260 260 267 275 281 287 290 292 293 293 294 294 295 297 299 298 297 297 299 302 306 309 312 315 316 317 315 310 305 304 309 316 321 322
280 278 277 277 278 275 267 259 258 262 270 279 285 290 292 290 289 289 290 291 293 295 296 297 300 304 307 309 312 314 316 317 317 317 314 308 304 304 310 318 321 320
290 285 283 281 278 274 268 264 266 274 282 288 292 293 291 288 286 287 288 289 290 292 294 297 303 308 312 314 316 317 317 317 317 316 312 307 304 305 312 318 320 319
295 292 291 289 284 279 276 276 279 286 292 294 294 292 288 285 284 285 286 288 290 293 297 303 309 312 314 315 316 316 316 316 315 314 311 308 306 308 313 317 318 318
297 292 290 289 288 286 284 284 286 287 289 290 290 290 288 287 287 289 290 292 295 300 304 308 311 312 313 314 315 315 314 313 313 312 312 311 311 312 315 317 317 317
301 294 290 288 288 288 287 285 284 284 284 287 289 290 291 292 293 296 298 301 303 305 307 309 310 312 313 313 313 312 312 312 313 314 315 314 314 316 317 317 318 319
300 295 291 288 286 285 285 284 284 284 286 288 290 291 293 294 297 299 301 303 305 306 307 309 310 311 311 311 311 311 312 314 315 317 317 317 317 318 318 318 319 321
302 298 295 292 289 287 287 288 289 289 290 290 290 292 294 296 298 299 301 303 305 306 308 308 309 309 309 309 310 312 314 316 317 317 318 318 319 319 319 320 322 323
308 305 304 302 299 296 293 293 293 294 294 294 294 295 296 298 299 300 302 304 306 307 308 308 308 308 310 312 313 315 317 317 317 318 319 319 319 319 320 322 324 326
314 310 308 307 306 304 301 298 297 296 297 297 298 298 299 299 300 302 304 306 307 308 309 310 312 314 315 317 317 318 318 318 319 319 320 320 320 321 323 325 327 329
318 317 315 315 314 313 310 307 304 303 302 301 301 302 302 303 303 305 307 309 311 313 315 317 319 320 319 319 319 319 320 320 321 321 321 321 322 324 326 328 331 333
322 322 322 322 320 318 316 315 313 310 308 306 305 305 305 306 307 308 310 313 317 320 322 322 321 320 320 320 321 321 322 321 320 320 321 323 325 327 330 333 335 336
323 324 326 326 325 324 321 319 316 314 312 311 310 309 309 308 309 310 314 318 321 322 322 322 322 322 323 323 323 323 321 320 320 322 324 326 329 331 335 337 338 338
326 328 329 330 332 332 330 326 321 318 317 317 317 316 315 315 315 318 320 322 322 322 322 323 324 324 324 323 322 321 320 320 323 326 329 331 333 337 339 340 340 340
331 332 332 335 337 338 338 336 331 325 322 322 323 324 324 324 325 325 324 324 324 324 324 324 323 323 323 322 321 320 322 326 329 332 334 336 339 342 343 343 342 342
Height
10927 10928 10929 10929 10928 10928 10927 10927 10926 10926 10926 10926 10925 10926 10926 10926 10925 10923 10922 10922 10922 10919 10917 10917 10915 10913 10912 10910 10908 10906 10905 10904 10902 10900 10897 10895 10893 10890 10888 10886 10884 10881
10926 10927 10928 10927 10926 10925 10924 10924 10924 10923 10923 10922 10921 10921 10921 10921 10921 10920 10919 10919 10919 10917 10915 10913 10911 10910 10908 10907 10905 10903 10902 10900 10899 10896 10894 10892 10889 10886 10884 10881 10879 10877
10925 10926 10927 10926 10924 10923 10922 10922 10921 10920 10919 10919 10918 10917 10916 10916 10917 10917 10916 10916 10915 10914 10912 10910 10908 10906 10905 10904 10902 10901 10899 10897 10895 10893 10890 10888 10885 10883 10880 10876 10874 10872
10923 10924 10925 10924 10922 10921 10920 10920 10918 10917 10916 10916 10915 10914 10912 10912 10913 10914 10913 10912 10911 10910 10909 10907 10905 10903 10902 10901 10899 10898 10896 10893 10891 10889 10886 10883 10881 10878 10875 10872 10870 10868
10920 10920 10920 10921 10920 10919 10918 10917 10916 10914 10913 10913 10912 10912 10910 10909 10910 10910 10909 10908 10907 10906 10905 10903 10902 10900 10899 10898 10896 10894 10892 10890 10887 10885 10883 10880 10877 10874 10871 10868 10865 10863
10917 10917 10917 10917 10917 10915 10915 10915 10913 10912 10911 10910 10910 10909 10908 10907 10906 10906 10906 10905 10904 10903 10902 10900 10899 10898 10896 10895 10893 10891 10889 10886 10884 10881 10879 10876 10873 10870 10867 10864 10861 10859
10914 10913 10913 10913 10913 10912 10912 10911 10911 10910 10909 10908 10907 10907 10906 10905 10903 10903 10903 10902 10901 10900 10899 10898 10896 10895 10893 10891 10889 10887 10885 10882 10880 10877 10875 10872 10869 10866 10863 10860 10857 10855
10909 10909 10909 10909 10909 10909 10908 10908 10908 10907 10907 10906 10905 10904 10903 10903 10902 10900 10899 10898 10897 10896 10895 10894 10893 10891 10889 10887 10885 10883 10880 10878 10876 10873 10870 10867 10865 10862 10859 10857 10854 10851
10905 10905 10905 10905 10905 10905 10905 10904 10904 10904 10904 10904 10903 10902 10901 10900 10900 10898 10896 10895 10894 10892 10891 10890 10888 10887 10885 10883 10881 10879 10876 10874 10872 10870 10866 10863 10860 10857 10855 10853 10850 10847
10902 10901 10902 10902 10901 10900 10900 10900 10901 10901 10901 10901 10900 10899 10898 10897 10897 10895 10893 10892 10891 10890 10888 10887 10885 10883 10881 10879 10877 10875 10872 10870 10868 10866 10862 10859 10856 10853 10850 10848 10846 10842
10899 10898 10899 10899 10898 10897 10897 10897 10897 10898 10898 10898 10897 10896 10895 10894 10893 10892 10891 10890 10888 10887 10885 10884 10882 10880 10878 10876 10873 10871 10869 10867 10864 10861 10858 10855 10852 10849 10846 10844 10840 10836
10897 10896 10896 10897 10896 10896 10895 10895 10895 10896 10896 10896 10895 10894 10893 10892 10890 10889 10888 10887 10885 10884 10883 10881 10879 10877 10875 10872 10870 10868 10865 10863 10860 10857 10853 10850 10848 10845 10843 10840 10836 10831
10896 10895 10895 10895 10895 10894 10894 10894 10894 10893 10893 10893 10892 10891 10890 10889 10887 10886 10885 10884 10882 10881 10879 10877 10875 10873 10871 10869 10867 10864 10861 10858 10855 10852 10850 10847 10844 10842 10839 10835 10831 10827
10895 10894 10894 10894 10893 10893 10893 10892 10892 10891 10891 10890 10889 10888 10887 10886 10885 10883 10882 10880 10879 10878 10876 10874 10872 10870 10867 10865 10862 10860 10856 10854 10851 10848 10846 10843 10841 10838 10835 10831 10827 10822
10895 10894 10893 10892 10892 10892 10891 10890 10890 10889 10888 10887 10886 10885 10884 10883 10881 10880 10879 10877 10875 10874 10872 10870 10868 10865 10863 10861 10858 10855 10852 10849 10847 10844 10842 10840 10838 10835 10831 10827 10823 10818
10893 10893 10892 10891 10890 10889 10889 10888 10887 10886 10885 10884 10883 10882 10881 10880 10878 10876 10875 10873 10872 10870 10868 10866 10863 10861 10859 10857 10854 10851 10848 10846 10843 10841 10839 10836 10834 10831 10827 10823 10818 10813
10892 10891 10890 10889 10888 10887 10886 10885 10885 10884 10883 10882 10880 10879 10878 10876 10875 10873 10871 10869 10867 10866 10864 10861 10859 10857 10855 10853 10850 10848 10844 10842 10839 10838 10836 10833 10830 10827 10822 10818 10813 10807
10890 10889 10888 10887 10886 10885 10884 10883 10882 10881 10879 10878 10876 10875 10874 10872 10871 10869 10867 10865 10864 10862 10859 10857 10855 10852 10851 10849 10847 10844 10841 10838 10836 10834 10832 10828 10825 10822 10818 10813 10808 10802
10888 10887 10886 10884 10883 10882 10881 10880 10879 10877 10876 10874 10873 10872 10870 10868 10867 10865 10863 10862 10860 10857 10855 10853 10850 10848 10847 10845 10843 10841 10839 10836 10833 10831 10828 10824 10821 10817 10813 10808 10803 10798
10886 10885 10883 10882 10881 10880 10878 10877 10875 10874 10872 10871 10870 10868 10867 10865 10863 10861 10860 10857 10855 10853 10851 10849 10847 10845 10843 10841 10840 10838 10836 10833 10830 10827 10824 10821 10817 10813 10809 10804 10799 10794
10885 10883 10882 10880 10878 10877 10875 10874 10872 10870 10869 10867 10866 10864 10863 10861 10860 10858 10856 10854 10852 10850 10848 10846 10844 10842 10840 10839 10837 10835 10832 10830 10827 10823 10820 10817 10813 10809 10804 10800 10796 10791
10882 10881 10879 10877 10875 10873 10872 10870 10868 10867 10865 10864 10862 10861 10859 10858 10856 10854 10852 10851 10849 10847 10845 10843 10842 10840 10838 10836 10834 10832 10829 10826 10823 10820 10816 10812 10809 10805 10801 10797 10793 10788
10880 10878 10875 10873 10871 10870 10868 10866 10865 10863 10862 10861 10859 10858 10856 10855 10853 10851 10850 10848 10846 10845 10843 10841 10839 10837 10835 10833 10831 10828 10826 10823 10820 10817 10813 10809 10805 10801 10798 10794 10790 10786
10878 10876 10873 10871 10869 10867 10865 10864 10863 10861 10860 10858 10857 10855 10854 10852 10850 10849 10847 10845 10844 10842 10840 10839 10837 10835 10833 10830 10828 10825 10822 10820 10816 10813 10810 10806 10802 10799 10796 10792 10788 10785
10877 10874 10872 10870 10868 10866 10864 10862 10861 10859 10858 10856 10855 10853 10852 10850 10848 10847 10845 10843 10842 10840 10838 10836 10834 10832 10830 10828 10825 10822 10819 10816 10813 10810 10807 10803 10800 10797 10794 10790 10786 10782
10875 10873 10870 10868 10866 10864 10862 10860 10859 10857 10856 10854 10853 10851 10850 10848 10846 10845 10843 10841 10839 10837 10835 10833 10832 10830 10827 10825 10822 10819 10815 10812 10809 10807 10804 10801 10798 10795 10792 10788 10784 10780